TimeCDT,TemperatureF,Dew PointF,Humidity,Sea Level PressureIn,VisibilityMPH,Wind Direction,Wind SpeedMPH,Gust SpeedMPH,PrecipitationIn,Events,Conditions,WindDirDegrees,DateUTC
12:53 AM,59.0,48.9,69,30.01,10.0,Calm,Calm,-,N/A,,Clear,0,2012-11-02 05:53:00
1:53 AM,59.0,50.0,72,30.01,10.0,Calm,Calm,-,N/A,,Clear,0,2012-11-02 06:53:00
2:53 AM,57.9,50.0,75,30.00,10.0,Calm,Calm,-,N/A,,Clear,0,2012-11-02 07:53:00
3:53 AM,60.1,53.1,78,29.99,10.0,Calm,Calm,-,N/A,,Clear,0,2012-11-02 08:53:00
4:53 AM,59.0,55.0,87,29.99,10.0,Calm,Calm,-,N/A,,Clear,0,2012-11-02 09:53:00
5:53 AM,61.0,57.9,90,29.99,10.0,SSE,3.5,-,N/A,,Clear,150,2012-11-02 10:53:00
6:53 AM,60.1,57.0,90,30.01,8.0,South,3.5,-,N/A,,Clear,170,2012-11-02 11:53:00
7:18 AM,61.0,59.0,93,30.05,5.0,Variable,3.5,-,N/A,,Partly Cloudy,0,2012-11-02 12:18:00
7:50 AM,59.0,57.2,94,30.05,1.2,West,3.5,-,N/A,,Scattered Clouds,260,2012-11-02 12:50:00
7:53 AM,59.0,57.0,93,30.02,0.5,Calm,Calm,-,N/A,Fog,Fog,0,2012-11-02 12:53:00
8:00 AM,59.0,57.9,96,30.05,0.2,Calm,Calm,-,N/A,Fog,Fog,0,2012-11-02 13:00:00
8:53 AM,60.1,60.1,100,30.04,0.2,Calm,Calm,-,N/A,Fog,Fog,0,2012-11-02 13:53:00
9:00 AM,60.1,59.0,96,30.07,2.5,Calm,Calm,-,N/A,,Mostly Cloudy,0,2012-11-02 14:00:00
9:02 AM,60.1,60.1,100,30.07,3.0,SSW,3.5,-,N/A,,Scattered Clouds,200,2012-11-02 14:02:00
9:53 AM,66.0,62.1,87,30.04,9.0,SSE,6.9,-,N/A,,Partly Cloudy,160,2012-11-02 14:53:00
10:53 AM,70.0,61.0,73,30.05,10.0,South,8.1,-,N/A,,Clear,170,2012-11-02 15:53:00
11:53 AM,75.0,60.1,60,30.03,10.0,South,8.1,18.4,N/A,,Clear,170,2012-11-02 16:53:00
12:53 PM,79.0,57.9,48,30.01,10.0,South,10.4,-,N/A,,Clear,170,2012-11-02 17:53:00
1:53 PM,81.0,55.9,42,29.97,10.0,South,13.8,18.4,N/A,,Clear,180,2012-11-02 18:53:00
2:53 PM,82.0,54.0,38,29.94,10.0,SSW,11.5,-,N/A,,Clear,200,2012-11-02 19:53:00
3:53 PM,82.9,53.1,36,29.92,10.0,South,11.5,17.3,N/A,,Clear,180,2012-11-02 20:53:00
4:53 PM,82.0,52.0,35,29.92,10.0,South,11.5,-,N/A,,Clear,170,2012-11-02 21:53:00
5:53 PM,80.1,53.1,39,29.93,10.0,South,11.5,-,N/A,,Clear,190,2012-11-02 22:53:00
6:53 PM,75.9,55.0,48,29.94,10.0,South,4.6,-,N/A,,Clear,180,2012-11-02 23:53:00
7:53 PM,73.0,55.0,53,29.96,10.0,Calm,Calm,-,N/A,,Clear,0,2012-11-03 00:53:00
8:53 PM,68.0,54.0,61,29.97,10.0,Calm,Calm,-,N/A,,Clear,0,2012-11-03 01:53:00
9:53 PM,66.0,54.0,65,29.97,10.0,Calm,Calm,-,N/A,,Clear,0,2012-11-03 02:53:00
10:53 PM,66.0,55.0,68,29.99,10.0,Calm,Calm,-,N/A,,Clear,0,2012-11-03 03:53:00